When you browse on this site, cookies collect data to enhance your experience and personalize the content and advertising you see.
Visit our Privacy Policy to learn more. By continuing to use the site, you agree to this use of cookies and data.
  • In Deutschland
  • Länderverzeichnis
  • Für 7 Tage
  • Wassertemperatur
  • Satellitenkarten
  • Wetterkarte
  • Widgets
  • user-avatar
    Anmelden

    Stündliche Wetter Novi Ligure

    Heute, 19 November, Montag

    Zeit Temperatur Niederschläge Wind Luftdruck Luftfeuchtigkeit
    00:00 +3°C° 0 mm 2 m/S 741 mmHg 68%
    01:00 +3°C° 0 mm 2 m/S 741 mmHg 68%
    02:00 +3°C° 0 mm 2 m/S 740 mmHg 70%
    03:00 +2°C° 0 mm 2 m/S 740 mmHg 72%
    04:00 +2°C° 0 mm 2 m/S 740 mmHg 74%
    05:00 +2°C° 0 mm 2 m/S 739 mmHg 76%
    06:00 +2°C° 0 mm 2 m/S 739 mmHg 77%
    07:00 +1°C° 0 mm 2 m/S 739 mmHg 78%
    08:00 +3°C° 0 mm 2 m/S 739 mmHg 74%
    09:00 +4°C° 0 mm 2 m/S 738 mmHg 70%
    10:00 +5°C° 0 mm 2 m/S 738 mmHg 67%
    11:00 +4°C° 0 mm 3 m/S 738 mmHg 65%
    12:00 +5°C° 0 mm 3 m/S 738 mmHg 63%
    13:00 +6°C° 0 mm 4 m/S 738 mmHg 61%
    14:00 +5°C° 0.1 mm 4 m/S 737 mmHg 64%
    15:00 +5°C° 0.1 mm 4 m/S 737 mmHg 67%
    16:00 +5°C° 0.1 mm 4 m/S 736 mmHg 69%
    17:00 +4°C° 0.1 mm 4 m/S 736 mmHg 72%
    18:00 +4°C° 0.1 mm 4 m/S 736 mmHg 75%
    19:00 +3°C° 0.1 mm 3 m/S 736 mmHg 78%
    20:00 +3°C° 0 mm 4 m/S 736 mmHg 78%
    21:00 +3°C° 0 mm 4 m/S 736 mmHg 78%
    22:00 +3°C° 0 mm 4 m/S 736 mmHg 78%
    23:00 +3°C° 0 mm 3 m/S 736 mmHg 79%

    Morgen, 20 November, Dienstag

    Zeit Temperatur Niederschläge Wind Luftdruck Luftfeuchtigkeit
    00:00 +3°C° 0 mm 3 m/S 736 mmHg 80%
    01:00 +2°C° 0 mm 3 m/S 736 mmHg 82%
    02:00 +2°C° 0 mm 3 m/S 735 mmHg 83%
    03:00 +3°C° 0 mm 2 m/S 735 mmHg 84%
    04:00 +3°C° 0 mm 2 m/S 735 mmHg 84%
    05:00 +3°C° 0 mm 2 m/S 735 mmHg 85%
    06:00 +3°C° 0 mm 2 m/S 735 mmHg 85%
    07:00 +2°C° 0 mm 2 m/S 735 mmHg 86%
    08:00 +3°C° 0 mm 2 m/S 736 mmHg 82%
    09:00 +4°C° 0 mm 2 m/S 736 mmHg 78%
    10:00 +5°C° 0 mm 2 m/S 736 mmHg 73%
    11:00 +6°C° 0 mm 2 m/S 736 mmHg 70%
    12:00 +7°C° 0 mm 2 m/S 736 mmHg 67%
    13:00 +8°C° 0 mm 2 m/S 736 mmHg 63%
    14:00 +7°C° 0 mm 2 m/S 737 mmHg 66%
    15:00 +7°C° 0 mm 2 m/S 737 mmHg 68%
    16:00 +8°C° 0 mm 1 m/S 737 mmHg 71%
    17:00 +7°C° 0 mm 1 m/S 738 mmHg 74%
    18:00 +6°C° 0 mm 1 m/S 738 mmHg 77%
    19:00 +5°C° 0 mm 1 m/S 739 mmHg 80%
    20:00 +4°C° 0 mm 2 m/S 739 mmHg 80%
    21:00 +4°C° 0 mm 2 m/S 739 mmHg 80%
    22:00 +4°C° 0 mm 2 m/S 740 mmHg 80%
    23:00 +4°C° 0 mm 2 m/S 740 mmHg 79%

    übermorgen, 21 November, Mittwoch

    Zeit Temperatur Niederschläge Wind Luftdruck Luftfeuchtigkeit
    00:00 +3°C° 0 mm 2 m/S 740 mmHg 79%
    01:00 +3°C° 0 mm 2 m/S 740 mmHg 78%
    02:00 +3°C° 0 mm 2 m/S 740 mmHg 78%
    03:00 +3°C° 0 mm 2 m/S 740 mmHg 77%
    04:00 +3°C° 0 mm 2 m/S 740 mmHg 77%
    05:00 +3°C° 0 mm 2 m/S 740 mmHg 77%
    06:00 +3°C° 0 mm 2 m/S 740 mmHg 77%
    07:00 +3°C° 0 mm 2 m/S 740 mmHg 77%
    08:00 +4°C° 0.7 mm 2 m/S 740 mmHg 78%
    09:00 +4°C° 0.7 mm 2 m/S 741 mmHg 78%
    10:00 +5°C° 0.7 mm 2 m/S 741 mmHg 79%
    11:00 +5°C° 0.5 mm 2 m/S 741 mmHg 81%
    12:00 +5°C° 0.5 mm 2 m/S 741 mmHg 82%
    13:00 +6°C° 0.5 mm 2 m/S 741 mmHg 83%
    14:00 +6°C° 0 mm 2 m/S 742 mmHg 83%
    15:00 +7°C° 0 mm 1 m/S 742 mmHg 83%
    16:00 +7°C° 0 mm 1 m/S 742 mmHg 83%
    17:00 +7°C° 0 mm 1 m/S 742 mmHg 84%
    18:00 +6°C° 0 mm 1 m/S 742 mmHg 85%
    19:00 +5°C° 0 mm 1 m/S 742 mmHg 87%
    20:00 +5°C° 0 mm 1 m/S 743 mmHg 87%
    21:00 +5°C° 0 mm 1 m/S 743 mmHg 86%
    22:00 +5°C° 0 mm 1 m/S 744 mmHg 86%
    23:00 +5°C° 0 mm 1 m/S 744 mmHg 86%

    22 November, Donnerstag

    Zeit Temperatur Niederschläge Wind Luftdruck Luftfeuchtigkeit
    00:00 +5°C° 0 mm 1 m/S 744 mmHg 86%
    01:00 +5°C° 0 mm 1 m/S 744 mmHg 86%
    02:00 +5°C° 0 mm 1 m/S 744 mmHg 86%
    03:00 +5°C° 0 mm 1 m/S 744 mmHg 87%
    04:00 +5°C° 0 mm 1 m/S 744 mmHg 87%
    05:00 +5°C° 0 mm 1 m/S 745 mmHg 87%
    06:00 +5°C° 0 mm 1 m/S 745 mmHg 87%
    07:00 +5°C° 0 mm 1 m/S 745 mmHg 87%
    08:00 +6°C° 0 mm 1 m/S 746 mmHg 83%
    09:00 +7°C° 0 mm 1 m/S 746 mmHg 80%
    10:00 +8°C° 0 mm 1 m/S 746 mmHg 76%
    11:00 +9°C° 0 mm 1 m/S 746 mmHg 73%
    12:00 +10°C° 0 mm 1 m/S 746 mmHg 70%
    13:00 +11°C° 0 mm 1 m/S 746 mmHg 67%
    14:00 +11°C° 0 mm 1 m/S 747 mmHg 70%
    15:00 +11°C° 0 mm 1 m/S 747 mmHg 73%
    16:00 +10°C° 0 mm 1 m/S 747 mmHg 76%
    17:00 +9°C° 0 mm 1 m/S 747 mmHg 79%
    18:00 +8°C° 0 mm 1 m/S 748 mmHg 82%
    19:00 +7°C° 0 mm 1 m/S 748 mmHg 85%
    20:00 +7°C° 0 mm 1 m/S 749 mmHg 86%
    21:00 +7°C° 0 mm 1 m/S 749 mmHg 87%
    22:00 +7°C° 0 mm 1 m/S 750 mmHg 87%
    23:00 +6°C° 0 mm 1 m/S 750 mmHg 88%

    23 November, Freitag

    Zeit Temperatur Niederschläge Wind Luftdruck Luftfeuchtigkeit
    00:00 +6°C° 0 mm 1 m/S 750 mmHg 88%
    01:00 +6°C° 0 mm 1 m/S 750 mmHg 89%
    02:00 +6°C° 0 mm 1 m/S 750 mmHg 89%
    03:00 +6°C° 0 mm 1 m/S 750 mmHg 89%
    04:00 +5°C° 0 mm 1 m/S 750 mmHg 89%
    05:00 +5°C° 0 mm 1 m/S 750 mmHg 89%
    06:00 +5°C° 0 mm 1 m/S 750 mmHg 89%
    07:00 +5°C° 0 mm 1 m/S 750 mmHg 89%
    08:00 +6°C° 0 mm 1 m/S 751 mmHg 86%
    09:00 +7°C° 0 mm 1 m/S 751 mmHg 83%
    10:00 +8°C° 0 mm 1 m/S 751 mmHg 80%
    11:00 +8°C° 0.1 mm 1 m/S 751 mmHg 80%
    12:00 +9°C° 0.1 mm 1 m/S 750 mmHg 79%
    13:00 +9°C° 0.1 mm 1 m/S 750 mmHg 78%
    14:00 +9°C° 0.4 mm 1 m/S 750 mmHg 81%
    15:00 +9°C° 0.4 mm 1 m/S 750 mmHg 83%
    16:00 +8°C° 0.4 mm 1 m/S 750 mmHg 86%
    17:00 +8°C° 1 mm 1 m/S 749 mmHg 88%
    18:00 +8°C° 1 mm 1 m/S 749 mmHg 90%
    19:00 +8°C° 1 mm 1 m/S 749 mmHg 92%
    20:00 +8°C° 0.8 mm 1 m/S 749 mmHg 93%
    21:00 +7°C° 0.8 mm 2 m/S 749 mmHg 94%
    22:00 +7°C° 0.8 mm 2 m/S 749 mmHg 94%
    23:00 +7°C° 0.9 mm 2 m/S 749 mmHg 95%

    24 November, Samstag

    Zeit Temperatur Niederschläge Wind Luftdruck Luftfeuchtigkeit
    00:00 +7°C° 0.9 mm 2 m/S 748 mmHg 95%
    01:00 +8°C° 0.9 mm 1 m/S 748 mmHg 95%
    02:00 +8°C° 1.1 mm 1 m/S 747 mmHg 95%
    03:00 +8°C° 1.1 mm 1 m/S 747 mmHg 96%
    04:00 +8°C° 1.1 mm 1 m/S 747 mmHg 96%
    05:00 +8°C° 1 mm 1 m/S 746 mmHg 96%
    06:00 +8°C° 1 mm 1 m/S 746 mmHg 96%
    07:00 +8°C° 1 mm 1 m/S 746 mmHg 96%
    08:00 +8°C° 0.4 mm 1 m/S 746 mmHg 95%
    09:00 +9°C° 0.4 mm 1 m/S 746 mmHg 95%
    10:00 +9°C° 0.4 mm 1 m/S 746 mmHg 94%
    11:00 +9°C° 0.1 mm 1 m/S 746 mmHg 93%
    12:00 +10°C° 0.1 mm 1 m/S 745 mmHg 92%
    13:00 +10°C° 0.1 mm 1 m/S 745 mmHg 91%
    14:00 +10°C° 0 mm 1 m/S 745 mmHg 92%
    15:00 +10°C° 0 mm 1 m/S 745 mmHg 92%
    16:00 +10°C° 0 mm 1 m/S 745 mmHg 92%
    17:00 +10°C° 0 mm 1 m/S 745 mmHg 93%
    18:00 +10°C° 0 mm 1 m/S 745 mmHg 94%
    19:00 +9°C° 0 mm 1 m/S 745 mmHg 94%
    20:00 +9°C° 0 mm 1 m/S 745 mmHg 95%
    21:00 +9°C° 0 mm 1 m/S 745 mmHg 95%
    22:00 +9°C° 0 mm 1 m/S 745 mmHg 95%
    23:00 +9°C° 0.2 mm 1 m/S 745 mmHg 95%
    Mehr zeigen